Lapse_Rate
6.5 6.5 6.5 6.5 6.5 6.5 6.5 6.5 6.5 6.5 6.5 6.5 6.5 6.5 6.5 6.9 7.2 7.3 7.4 7.5 7.5 7.4 6.9 6.6 6.5 6.6 7.1 6.5 5.5 5.4 5.6 5.5 5.6 5.7 5.5 5.5 5.0 5.1 5.3 4.5 4.2 3.8 4.9 4.3
6.5 6.5 6.5 6.5 6.5 6.5 6.5 6.5 6.5 6.5 6.5 6.5 6.4 6.7 6.9 7.0 7.2 7.3 7.4 7.6 7.8 7.9 7.8 7.2 7.0 7.0 6.9 7.0 6.9 6.0 5.1 4.5 4.6 4.6 5.2 4.8 4.4 3.8 3.6 3.6 4.6 4.2 4.7 4.3
6.5 6.5 6.5 6.5 6.5 6.5 6.5 6.5 6.5 6.5 6.5 6.5 6.5 6.5 6.7 7.1 7.3 7.3 7.5 7.7 7.9 8.0 8.1 7.9 7.6 7.3 7.1 7.3 7.2 7.0 6.8 6.5 5.5 5.5 4.9 5.2 4.7 4.0 3.5 2.8 3.4 4.6 4.3 4.0
6.5 6.5 6.5 6.5 6.5 6.5 6.5 6.5 6.5 6.5 6.5 6.6 6.7 7.2 7.6 7.8 7.6 7.6 7.8 7.8 8.0 8.0 8.3 8.5 8.1 7.4 8.1 7.2 7.7 7.4 7.0 7.0 6.5 5.5 5.5 5.0 4.7 4.4 4.1 3.5 3.1 3.7 3.1 4.0
6.5 6.5 6.5 6.5 6.5 6.5 6.5 6.5 6.5 6.5 6.5 6.8 7.1 7.2 7.2 7.9 8.1 8.0 8.0 8.1 7.7 7.7 7.3 6.7 7.3 8.2 8.3 6.6 5.3 4.7 4.4 5.7 5.9 5.6 5.0 5.1 4.5 4.5 4.5 3.6 2.7 2.8 2.6 2.1
6.5 6.5 6.5 6.5 6.5 7.0 6.8 6.5 6.7 6.8 6.6 6.7 7.0 6.5 6.5 7.9 8.0 8.0 7.9 8.0 7.0 7.0 7.1 6.1 5.6 6.0 6.1 6.0 6.0 5.4 4.3 4.4 4.4 4.9 4.1 4.2 3.4 4.0 2.7 3.7 2.5 2.9 1.1 0.7
6.5 6.5 6.5 6.5 6.8 7.1 6.5 6.5 7.0 7.1 7.1 7.1 6.5 7.0 7.7 8.0 7.6 7.2 7.1 6.0 5.6 6.0 6.5 6.7 6.1 5.1 4.9 5.1 4.2 4.8 4.6 4.6 4.1 4.0 4.0 3.9 3.0 3.1 2.5 2.2 1.7 1.1 1.0 0.3
6.5 6.5 6.5 6.9 6.7 6.5 6.6 7.2 7.3 7.4 7.4 7.3 7.5 7.5 7.1 7.5 7.4 8.0 7.1 6.1 7.2 8.2 8.3 8.6 8.4 8.0 7.0 5.5 5.3 4.9 4.5 4.5 4.2 3.7 3.4 3.6 2.5 2.1 2.1 2.2 1.5 1.0 0.5 0.4
6.5 6.5 6.6 6.8 7.0 7.5 7.5 7.3 7.2 7.4 7.6 7.3 7.6 7.6 7.8 7.9 8.0 8.2 8.4 8.5 8.7 8.7 8.6 8.7 8.6 7.7 7.5 7.9 6.0 5.3 5.4 4.7 4.4 4.2 3.8 3.4 3.6 2.7 2.5 2.9 2.6 1.8 1.8 2.0
6.5 6.5 6.7 7.0 6.9 7.2 6.9 6.6 6.6 6.7 6.8 6.8 7.6 7.6 7.7 7.8 8.0 8.2 8.4 8.6 8.8 8.6 8.4 8.2 8.1 6.8 5.8 5.8 5.8 5.3 4.7 5.0 5.0 4.6 4.6 4.8 4.6 4.7 4.9 4.7 4.4 4.2 3.3 2.3
6.5 6.6 6.4 6.4 6.3 6.4 7.0 6.3 6.5 6.5 6.4 6.3 6.3 6.4 6.4 7.3 7.6 8.1 8.5 8.8 8.7 8.4 8.2 7.3 6.6 6.3 6.8 7.0 6.3 5.3 4.7 4.4 4.4 4.6 4.7 4.8 5.4 6.2 6.2 6.4 6.9 6.7 6.0 6.4
6.5 6.8 6.9 7.0 6.3 5.8 6.4 6.4 6.0 5.8 6.1 6.3 6.2 6.5 6.6 7.7 8.2 8.5 8.5 8.7 8.6 8.3 7.5 5.9 5.6 5.4 6.1 6.3 5.5 4.6 4.3 4.6 4.6 4.4 4.8 5.8 6.2 6.3 6.3 5.6 5.6 6.2 6.4 6.5
6.9 6.0 6.2 6.2 6.3 6.3 6.4 6.1 5.9 5.9 5.9 6.0 6.4 6.2 6.5 6.9 7.5 7.8 8.5 8.6 8.4 8.2 7.9 6.1 5.2 5.2 5.8 6.0 5.3 4.9 4.4 4.3 4.6 4.6 5.7 6.2 6.0 6.8 6.2 6.3 6.3 6.2 6.6 6.7
5.7 6.1 6.8 6.3 6.9 6.2 6.2 5.9 5.8 5.8 6.0 6.0 6.1 6.3 6.2 6.4 6.6 7.4 8.3 8.4 8.6 8.1 7.8 7.8 7.5 6.1 7.4 7.2 6.1 5.0 4.4 4.0 5.3 5.8 6.1 6.0 6.4 6.7 6.5 6.4 6.2 6.2 6.8 6.4
6.1 6.1 6.2 5.5 5.5 5.7 5.6 5.4 6.0 6.3 6.5 6.5 6.5 6.4 6.4 6.1 6.7 7.6 8.1 8.1 8.0 7.6 7.8 8.0 7.3 5.9 6.1 5.8 4.9 4.5 5.4 6.1 6.4 6.1 6.0 6.3 6.5 6.6 6.4 6.5 6.8 7.0 7.0 6.0
6.2 6.2 5.8 6.3 6.4 6.1 5.9 6.1 6.3 6.6 6.7 6.9 6.9 7.2 6.8 6.6 5.6 7.5 8.0 8.0 7.7 7.7 7.6 7.7 7.6 6.7 5.4 4.5 4.2 4.5 5.3 6.4 6.2 6.2 6.3 6.3 6.9 6.9 6.8 6.8 7.0 7.2 7.3 6.8
6.4 6.9 6.6 6.6 6.5 6.4 6.4 6.2 6.3 6.8 7.0 7.5 7.8 7.4 7.1 6.2 7.2 8.0 7.1 6.8 7.0 7.1 7.2 6.9 6.8 5.9 4.5 4.6 4.6 5.6 6.5 6.3 6.2 6.2 6.5 6.6 6.9 6.5 6.4 6.4 6.6 6.8 6.1 5.5
6.1 5.8 5.8 6.0 6.2 6.3 6.5 6.6 6.9 7.2 7.3 7.0 6.3 5.0 4.4 4.7 5.8 6.0 5.9 6.4 6.0 6.2 6.1 6.4 5.8 6.0 5.5 5.6 5.6 5.8 6.3 6.2 6.4 6.1 6.4 6.6 6.8 6.4 6.4 6.5 6.4 6.1 6.1 5.5
5.6 5.6 5.6 5.6 5.4 5.9 6.5 6.9 6.9 6.2 5.0 4.9 4.3 4.5 5.0 4.9 5.5 5.5 5.6 5.1 5.2 6.2 6.9 6.2 6.4 7.1 7.6 6.5 5.8 6.1 6.2 6.1 6.4 6.6 6.7 6.6 6.6 7.0 7.2 6.7 6.4 6.3 6.0 5.7
5.2 5.2 5.1 5.4 5.6 5.9 6.3 5.6 5.1 5.6 5.0 4.3 2.7 4.0 4.0 4.0 4.1 3.9 4.5 5.1 6.5 7.3 6.5 6.8 7.5 7.8 7.7 6.6 5.8 6.4 6.7 6.6 6.4 6.5 6.4 6.5 6.6 6.9 7.2 6.7 6.1 6.2 6.0 5.5
5.4 5.2 4.9 4.7 4.7 3.4 2.7 2.9 3.3 4.5 3.6 2.1 3.0 3.7 4.4 5.1 6.1 5.8 6.4 7.8 8.0 6.6 6.7 6.8 7.3 7.1 7.2 6.3 6.3 6.8 6.8 6.7 6.5 6.4 6.3 6.1 6.2 6.6 7.0 6.2 6.4 6.2 6.2 5.8
4.7 4.4 2.6 2.2 3.5 3.6 3.6 4.7 5.4 3.8 3.8 5.2 5.6 5.6 5.0 5.4 5.4 5.4 6.2 6.7 6.4 5.3 5.5 6.9 7.0 6.5 6.4 5.8 6.7 6.6 6.3 6.5 6.4 6.5 6.5 6.0 6.2 6.3 6.4 6.4 6.5 6.4 6.1 5.8
4.4 4.7 4.4 2.7 3.3 5.3 5.2 5.3 3.9 4.8 4.3 5.9 4.7 4.7 5.2 5.5 6.0 5.9 5.3 5.7 4.3 5.0 5.5 6.6 6.4 6.2 6.0 6.6 6.8 6.3 6.3 6.5 6.2 6.1 6.3 5.9 5.8 5.7 5.9 6.0 6.2 6.4 6.1 5.9
4.1 4.3 4.6 4.4 4.5 5.2 5.7 6.1 6.1 6.4 4.9 5.7 5.6 3.9 4.8 4.4 3.9 6.0 5.4 3.8 3.1 3.6 4.9 6.5 6.2 6.0 5.8 6.3 6.3 6.5 6.5 6.8 6.5 6.1 6.2 5.7 5.7 5.4 5.4 5.4 5.7 5.8 5.7 5.4
3.7 4.4 4.5 4.4 5.2 5.4 5.3 5.7 6.1 6.0 5.9 6.0 5.7 5.2 4.7 5.0 4.3 4.2 3.1 2.7 3.4 3.9 4.9 6.0 6.0 6.0 6.5 6.4 6.5 6.5 6.6 6.7 6.5 6.4 6.2 6.0 5.8 5.4 5.2 5.0 5.0 5.3 5.6 5.7
4.0 4.7 5.0 5.2 5.6 5.2 5.3 5.7 5.9 5.9 5.5 5.2 5.4 4.6 4.0 3.6 3.4 2.9 2.9 3.4 4.4 4.6 5.8 6.3 6.5 6.6 6.6 6.5 6.6 6.6 6.5 6.4 6.0 6.2 6.0 6.0 5.7 5.6 5.2 5.0 4.8 4.7 5.0 5.3
4.1 4.2 5.0 4.7 5.6 5.3 5.5 5.8 6.2 6.4 5.6 4.5 4.4 3.7 3.1 2.8 2.3 2.5 2.4 3.5 3.4 4.2 5.4 6.1 6.5 6.6 6.6 6.4 6.3 6.5 6.4 6.1 5.5 5.3 5.5 5.6 5.7 5.5 5.1 5.1 4.8 4.7 4.7 4.6
Wind_Speed
13 16 11 11 24 27 24 21 13 18 18 12 11 11 11 14 15 16 15 15 15 14 12 12 13 15 14 14 16 16 16 17 16 15 14 12 12 9 12 13 10 10 8 7
5 7 5 20 24 23 27 21 19 18 15 13 15 14 14 15 17 17 16 16 16 14 13 12 12 12 12 12 12 11 13 14 14 14 12 12 12 12 11 11 11 9 10 5
5 18 5 8 19 16 17 21 15 17 9 14 16 15 15 16 16 16 16 15 15 14 14 13 13 11 11 11 10 10 11 11 11 11 11 10 11 11 9 7 5 7 3 4
5 10 6 2 16 8 19 19 19 16 10 10 12 14 16 15 15 15 15 15 14 11 11 11 11 11 9 11 9 11 12 11 11 11 10 10 10 10 11 8 6 5 5 6
4 5 3 7 15 7 7 12 16 14 14 13 5 3 15 15 14 14 14 12 12 12 12 12 11 9 8 10 10 11 12 11 11 11 11 8 9 8 8 9 9 9 5 7
3 3 6 9 18 12 2 10 14 12 13 14 12 8 8 14 14 13 13 12 13 13 12 14 14 12 12 11 10 11 11 11 10 9 8 9 7 9 7 8 7 7 7 7
3 2 3 9 17 5 6 5 11 11 12 10 7 4 7 10 12 12 12 14 14 13 12 13 13 14 13 12 12 12 11 11 10 11 11 10 10 9 8 8 8 8 8 6
2 3 4 10 8 5 2 5 7 9 8 8 8 10 10 11 12 11 12 12 12 10 11 11 12 10 10 11 11 12 13 12 11 10 8 9 10 8 8 8 6 6 7 7
3 2 4 5 5 6 6 5 4 4 4 5 4 5 6 8 9 9 9 8 9 10 10 10 12 11 11 11 12 12 12 13 11 10 8 7 8 9 8 9 8 7 6 8
2 1 5 5 5 4 1 1 2 3 3 3 4 4 6 7 8 8 9 10 10 11 12 13 12 12 12 13 13 13 13 12 11 12 11 10 7 7 8 9 8 9 9 9
4 7 6 3 3 6 3 2 1 1 3 5 7 8 8 8 9 9 10 10 11 11 13 14 13 13 12 13 13 14 13 12 12 10 11 11 8 7 8 10 9 10 10 9
3 2 3 8 6 1 3 1 2 4 5 4 3 5 5 6 6 7 8 9 11 12 15 14 14 15 14 15 15 14 13 10 10 9 9 10 9 10 10 13 18 20 22 16
3 1 6 10 5 1 2 2 1 2 3 6 6 6 7 8 9 10 11 12 11 10 12 11 12 13 13 15 15 15 13 13 11 10 9 9 10 10 12 8 15 19 21 23
5 3 4 3 3 4 3 2 0 2 4 5 6 7 8 9 11 12 12 13 13 10 10 11 11 12 12 11 11 12 12 15 10 9 9 11 12 11 10 11 11 10 11 16
5 4 3 3 1 3 2 1 4 5 5 6 6 7 7 8 9 10 9 10 9 9 10 11 9 13 11 12 13 11 9 7 9 9 9 11 11 10 10 11 10 12 10 9
5 3 3 3 4 5 5 5 6 6 5 7 8 9 8 6 6 7 9 8 8 9 10 10 9 10 11 11 12 9 9 13 11 9 9 9 10 11 12 12 12 11 10 9
4 3 3 3 3 5 6 5 4 6 7 9 10 10 9 7 8 10 9 8 8 8 9 8 7 8 8 11 10 8 8 9 12 9 9 9 10 10 10 10 11 10 10 9
2 3 3 2 2 4 5 5 6 7 9 11 10 9 7 8 10 11 10 10 10 11 8 8 5 8 10 12 10 9 9 9 9 9 9 9 9 10 10 10 10 9 9 9
4 4 3 2 2 3 4 5 6 8 7 7 7 7 7 8 9 10 11 9 10 11 9 5 7 9 13 13 11 9 9 10 9 9 10 13 10 10 9 9 9 9 8 7
4 3 1 1 2 3 4 4 5 6 6 6 5 6 8 9 10 11 11 11 10 8 10 8 10 9 12 13 12 8 8 9 10 10 10 10 9 10 9 10 9 8 7 6
5 4 3 1 1 1 1 1 2 5 6 5 6 8 9 11 11 11 10 9 9 10 11 10 8 7 9 10 10 8 9 8 9 9 10 9 10 10 9 8 8 7 6 5
6 5 4 3 2 0 1 2 3 3 4 4 8 8 9 10 11 10 6 8 9 13 9 8 7 9 10 12 8 9 9 9 8 8 9 9 9 9 9 9 8 7 6 6
5 4 4 4 3 0 1 2 3 2 4 5 5 7 7 7 7 8 10 11 9 10 8 7 8 12 11 7 7 8 9 9 9 9 8 8 9 9 8 8 8 8 7 7
6 6 5 5 4 2 2 2 3 3 2 3 4 4 8 8 8 5 8 12 13 11 9 8 8 11 11 6 7 8 9 8 8 8 9 10 8 8 8 8 8 8 8 9
7 6 6 6 4 2 1 1 2 3 4 4 5 6 7 5 4 9 9 9 12 9 8 9 9 10 5 6 7 8 8 8 8 8 9 9 8 8 9 8 8 8 7 7
8 6 6 7 4 3 3 1 0 2 3 4 4 5 6 6 6 7 7 9 8 8 6 5 5 6 6 6 7 8 8 8 8 9 9 9 9 8 8 8 8 7 7 7
6 6 5 3 3 4 3 3 2 2 1 1 3 4 5 6 7 7 8 8 8 8 8 7 6 7 7 7 8 8 8 8 8 8 8 8 8 8 8 8 8 8 7 8
Wind_Direction
272 287 329 344 6 13 20 21 53 57 48 30 61 40 41 37 43 48 50 48 53 56 53 41 36 36 24 27 27 25 40 39 28 23 23 15 33 26 37 42 47 51 38 52
298 335 314 23 11 21 24 21 41 49 51 44 54 49 48 46 43 47 47 44 46 47 45 45 34 39 42 33 34 33 34 35 29 28 22 8 14 20 33 33 26 38 34 342
300 337 92 4 3 23 33 24 18 44 30 31 42 41 35 38 40 37 34 35 35 38 33 29 36 31 29 37 23 36 37 22 28 26 17 3 16 11 6 28 46 17 331 31
297 342 55 166 12 23 57 27 17 27 35 58 55 51 39 29 33 35 30 23 22 23 31 29 25 29 26 32 27 28 32 21 15 14 1 3 18 2 354 13 354 350 10 5
337 340 313 16 1 357 47 37 16 15 11 14 243 347 35 18 22 22 15 7 7 6 5 14 21 25 33 28 25 20 24 14 18 7 356 359 12 343 6 337 346 352 330 313
357 20 6 356 337 340 294 45 5 8 13 2 19 27 8 357 8 11 11 11 6 4 11 13 7 10 18 24 26 16 7 4 2 350 358 352 359 337 356 324 330 315 309 324
12 25 286 331 340 335 51 353 339 5 10 13 40 35 340 1 10 6 7 7 4 6 10 11 10 6 10 10 5 354 351 353 345 351 348 349 337 339 333 324 320 308 298 293
339 4 351 5 353 42 295 313 355 19 20 8 6 3 3 4 3 4 4 3 3 1 2 360 5 8 3 358 349 347 343 343 339 340 336 328 330 327 319 314 292 292 308 300
228 252 253 298 265 294 289 313 357 30 21 14 23 8 352 352 355 357 357 3 359 360 357 356 358 360 358 353 347 342 339 338 333 326 314 306 307 307 317 313 312 306 296 293
322 236 253 260 245 246 260 316 12 11 2 18 12 12 2 353 357 0 4 1 359 356 355 356 356 356 352 347 342 336 332 330 325 327 330 322 309 306 301 298 297 300 296 295
259 284 301 260 262 281 200 122 116 26 4 2 354 2 356 1 2 355 357 355 355 352 351 346 347 349 346 346 340 334 329 325 326 325 319 314 305 292 278 274 275 282 281 281
250 295 273 290 322 346 177 352 5 1 358 3 326 334 336 346 349 347 351 352 349 347 346 345 344 342 340 343 341 335 326 320 318 310 311 311 305 298 261 253 263 261 262 262
249 241 263 280 282 192 186 220 268 318 335 329 335 326 333 336 346 345 348 350 342 344 346 340 339 337 336 333 332 330 319 315 312 306 301 301 302 299 304 285 262 261 254 256
234 261 279 241 260 203 210 193 316 305 303 303 312 324 330 334 341 344 344 336 335 335 329 332 331 326 326 326 321 309 302 301 298 299 302 305 308 301 295 296 298 292 261 248
220 212 265 302 201 207 216 265 288 302 316 313 318 317 322 322 328 327 324 313 317 316 317 321 318 326 324 326 324 311 305 300 301 302 298 298 299 297 292 291 286 290 284 259
175 186 191 238 278 276 273 274 279 299 311 313 311 310 305 292 278 302 303 301 311 318 308 307 308 327 328 329 326 315 309 304 302 303 302 299 300 298 302 302 299 296 289 282
175 224 232 268 305 310 300 298 284 295 306 309 314 319 304 288 288 303 305 307 290 290 289 290 301 321 328 331 322 311 309 302 300 304 307 304 306 303 299 294 291 290 289 281
122 93 81 57 351 338 333 328 324 324 324 325 324 317 304 303 305 307 302 305 301 297 295 299 303 323 333 331 323 311 307 305 306 311 307 307 308 300 291 290 291 290 287 274
121 118 90 44 10 333 321 332 342 334 337 342 341 324 310 297 301 304 306 307 305 308 317 320 307 321 332 331 317 312 308 310 312 313 315 313 315 311 306 299 296 298 294 282
148 144 141 69 27 17 344 5 357 349 335 341 328 325 327 324 324 317 314 308 301 301 308 306 321 325 333 331 319 314 316 318 316 321 323 322 323 319 319 319 321 309 308 300
199 192 194 221 270 45 85 330 329 355 341 360 360 345 332 328 336 334 330 335 352 347 332 323 329 329 331 327 321 321 330 328 325 325 331 332 328 330 333 335 329 328 328 329
212 208 202 194 206 290 24 2 6 348 358 357 359 352 343 335 332 333 328 325 331 332 330 321 324 334 326 324 329 332 333 333 331 331 334 338 336 335 343 348 349 349 356 7
209 202 188 174 178 170 7 360 345 356 358 356 4 351 336 320 319 326 328 337 331 326 320 312 318 327 326 325 339 343 340 342 341 338 335 342 345 345 348 355 358 3 12 19
202 200 191 166 163 197 297 341 338 335 351 356 1 348 341 336 329 322 324 324 326 321 310 315 321 332 335 343 346 351 350 349 350 345 347 352 355 353 356 359 2 8 17 23
200 187 171 175 203 220 204 333 339 349 351 342 347 350 348 342 314 317 325 318 317 319 324 329 337 341 349 354 356 356 356 357 357 356 356 359 5 5 4 3 5 6 16 25
184 193 192 188 195 183 177 163 247 307 328 331 334 350 346 339 335 332 328 331 338 341 342 347 357 358 3 6 3 1 360 359 1 3 358 2 6 11 14 10 8 11 11 16
186 168 168 159 201 193 180 183 214 267 299 318 318 352 347 349 348 347 346 1 3 1 3 4 4 10 11 12 8 6 7 4 4 4 8 5 9 12 13 17 17 19 22 27